Volver al catálogo

STARLINK-32665

ActivoComunicacionesVLEO
NORAD 62203·PAYLOAD·🇺🇸 United States

Lanzado Dec 4, 2024 desde Cape Canaveral Space Force Station

Loading…

Próximos Pases (próximas 24 horas)

TLE

ActualizadoSource: CelesTrak SupGP

Época: Sep 14, 2026, 20:47 UTC

1 62203C 24229M   26257.86645833 -.00001682  00000+0 -60942-4 0  2577
2 62203  43.0026 282.3599 0001665 273.5443  76.3124 15.27576467    18

Sigue STARLINK-32665 en tiempo real con AllMySat

Download on the App Store